EW5139 Weather Reports


time (UTC)temp
F
wind
direction
speed
knots
gust
knots
rain 1hr
in
rain 24hr
in
rain mn
in
humidity
%
barometer
mb
20260509024406 56 329 1.7 4.3 0.00 0.00 0.00 85 1011.0
20260509023906 56 341 0.9 5.2 0.00 0.00 0.00 85 1010.9
20260509023406 56 331 1.7 2.6 0.00 0.00 0.00 85 1010.8
20260509022905 56 339 1.7 2.6 0.00 0.00 0.00 85 1010.9
20260509022406 56 334 0.9 2.6 0.00 0.00 0.00 85 1010.8
20260509021905 56 341 0.0 0.9 0.00 0.00 0.00 85 1010.5
20260509021405 56 52 0.0 0.9 0.00 0.00 0.00 84 1010.5
20260509020406 57 354 0.0 0.9 0.00 0.00 0.00 84 1010.4
20260509015906 57 347 0.0 0.0 0.00 0.00 0.00 84 1010.5
20260509015406 57 342 0.0 0.9 0.00 0.00 0.00 83 1010.5
20260509014905 57 322 0.0 0.0 0.00 0.00 0.00 83 1010.5
20260509014406 57 322 0.0 0.0 0.00 0.00 0.00 83 1010.5
20260509013905 57 312 0.0 0.0 0.00 0.00 0.00 82 1010.6
20260509013406 57 312 0.0 0.9 0.00 0.00 0.00 82 1010.5
20260509012905 58 349 0.0 0.9 0.00 0.00 0.00 81 1010.4
20260509012405 58 8 0.0 0.0 0.00 0.00 0.00 79 1010.5
20260509011905 58 8 0.0 2.6 0.00 0.00 0.00 78 1010.5
20260509011405 59 320 1.7 5.2 0.00 0.00 0.00 77 1010.6
20260509010905 59 333 2.6 6.1 0.00 0.00 0.00 75 1010.3
20260509010406 59 333 0.9 2.6 0.00 0.00 0.00 75 1010.4
20260509005905 59 341 0.0 0.9 0.00 0.00 0.00 78 1010.4
20260509005406 59 341 0.0 0.0 0.00 0.00 0.00 79 1010.2
20260509004906 60 341 0.0 0.0 0.00 0.00 0.00 79 1010.0
20260509004405 60 341 0.0 0.0 0.00 0.00 0.00 78 1009.9
20260509003905 60 341 0.0 0.0 0.00 0.00 0.00 78 1009.8
20260509003405 60 341 0.0 0.0 0.00 0.00 0.00 77 1009.8
20260509002905 60 341 0.0 0.0 0.00 0.00 0.00 76 1009.8
20260509001905 61 342 0.0 0.0 0.00 0.00 0.00 76 1009.9
20260509001406 61 342 0.0 0.0 0.00 0.00 0.00 76 1009.9
20260509000906 61 342 0.0 0.0 0.00 0.00 0.00 76 1010.0
20260509000405 61 342 0.0 0.0 0.00 0.00 0.00 75 1009.9
20260508235905 61 342 0.0 0.0 0.00 0.00 0.00 76 1009.9
20260508234406 62 342 0.0 0.0 0.00 0.00 0.00 73 1009.8
20260508233905 62 342 0.0 0.0 0.00 0.00 0.00 72 1009.7
20260508233405 63 342 0.0 0.0 0.00 0.00 0.00 69 1009.7
20260508232405 64 342 0.0 0.0 0.00 0.00 0.00 64 1010.0
20260508231905 64 315 0.0 0.0 0.00 0.00 0.00 62 1010.0
20260508231405 64 314 0.0 0.9 0.00 0.00 0.00 62 1010.0
20260508230905 64 155 0.0 0.9 0.00 0.00 0.00 61 1009.9
20260508230405 65 150 0.0 2.6 0.00 0.00 0.00 59 1009.7
20260508225905 65 347 0.9 2.6 0.00 0.00 0.00 58 1009.8
20260508225405 65 267 0.0 0.9 0.00 0.00 0.00 56 1009.7
20260508224905 66 319 0.0 0.0 0.00 0.00 0.00 56 1009.7
20260508224405 66 308 0.0 1.7 0.00 0.00 0.00 54 1009.7
20260508223905 66 161 0.0 0.9 0.00 0.00 0.00 54 1009.7
20260508223405 66 268 0.0 2.6 0.00 0.00 0.00 54 1009.6
20260508222906 66 104 0.0 0.9 0.00 0.00 0.00 53 1009.7
20260508222405 66 291 0.0 0.9 0.00 0.00 0.00 53 1009.7
20260508221905 66 291 0.0 0.0 0.00 0.00 0.00 52 1009.7
20260508221405 66 38 0.0 1.7 0.00 0.00 0.00 52 1009.6
20260508220905 66 45 0.0 0.9 0.00 0.00 0.00 52 1009.7
20260508220405 66 117 0.0 0.9 0.00 0.00 0.00 51 1009.6
20260508215405 66 203 0.0 0.9 0.00 0.00 0.00 51 1009.5
20260508214905 66 207 0.9 2.6 0.00 0.00 0.00 50 1009.5
20260508214405 67 49 0.9 4.3 0.00 0.00 0.00 50 1009.6
20260508213905 67 262 0.9 2.6 0.00 0.00 0.00 50 1009.5
20260508213405 67 175 0.9 2.6 0.00 0.00 0.00 51 1009.7
20260508212405 67 142 0.0 2.6 0.00 0.00 0.00 51 1009.8
20260508211905 67 269 0.0 0.9 0.00 0.00 0.00 51 1009.8
20260508211404 67 111 0.0 0.9 0.00 0.00 0.00 51 1009.9
20260508210905 67 134 0.9 1.7 0.00 0.00 0.00 51 1009.8
20260508210405 67 177 0.0 1.7 0.00 0.00 0.00 49 1010.0
20260508205905 67 89 0.0 1.7 0.00 0.00 0.00 50 1010.0
20260508205405 66 317 0.0 2.6 0.00 0.00 0.00 48 1010.2
20260508204905 66 267 0.9 2.6 0.00 0.00 0.00 48 1010.3
20260508203904 67 3 0.9 4.3 0.00 0.00 0.00 49 1010.5
20260508203405 67 276 1.7 6.1 0.00 0.00 0.00 48 1010.6
20260508202904 67 140 0.0 5.2 0.00 0.00 0.00 50 1010.6
20260508202405 67 226 0.0 2.6 0.00 0.00 0.00 49 1010.6
20260508201905 67 239 1.7 4.3 0.00 0.00 0.00 48 1010.6
20260508200905 67 247 0.9 5.2 0.00 0.00 0.00 48 1010.7
20260508195905 67 286 0.9 6.1 0.00 0.00 0.00 48 1010.6
20260508195405 67 158 0.0 2.6 0.00 0.00 0.00 48 1010.7
20260508194905 67 290 0.0 2.6 0.00 0.00 0.00 48 1010.8
20260508194405 67 146 0.0 1.7 0.00 0.00 0.00 48 1010.8
20260508193905 67 185 0.9 5.2 0.00 0.00 0.00 47 1010.8
20260508192904 68 227 0.0 2.6 0.00 0.00 0.00 46 1010.8
20260508192405 68 309 1.7 12.2 0.00 0.00 0.00 45 1011.0
20260508191905 68 268 1.7 4.3 0.00 0.00 0.00 45 1010.9
20260508191405 69 125 0.9 7.0 0.00 0.00 0.00 44 1011.0
20260508190905 69 256 1.7 4.3 0.00 0.00 0.00 47 1011.0
20260508185905 69 282 1.7 6.1 0.00 0.00 0.00 48 1011.3
20260508185405 69 236 1.7 5.2 0.00 0.00 0.00 45 1011.3
20260508184904 69 304 2.6 8.7 0.00 0.00 0.00 46 1011.6
20260508184405 69 28 1.7 2.6 0.00 0.00 0.00 47 1011.5
20260508183904 69 151 0.0 2.6 0.00 0.00 0.00 49 1011.6
20260508183404 68 228 0.9 7.8 0.00 0.00 0.00 47 1011.8
20260508182904 69 239 0.9 4.3 0.00 0.00 0.00 46 1011.9
20260508182404 69 204 0.9 2.6 0.00 0.00 0.00 47 1012.0
20260508181904 69 280 0.9 4.3 0.00 0.00 0.00 48 1012.1
20260508180904 68 293 1.7 7.8 0.00 0.00 0.00 48 1012.3
20260508175904 68 262 0.9 5.2 0.00 0.00 0.00 47 1012.5
20260508175404 68 251 0.9 7.0 0.00 0.00 0.00 51 1012.6
20260508174404 67 280 0.9 5.2 0.00 0.00 0.00 50 1012.6
20260508173904 67 196 0.9 5.2 0.00 0.00 0.00 49 1012.7
20260508172904 66 219 0.9 2.6 0.00 0.00 0.00 51 1013.0
20260508172404 67 220 0.9 2.6 0.00 0.00 0.00 50 1013.1
20260508171904 67 31 0.9 4.3 0.00 0.00 0.00 51 1013.1
20260508171404 67 132 1.7 5.2 0.00 0.00 0.00 52 1013.1
20260508170904 67 342 0.9 7.0 0.00 0.00 0.00 50 1013.2
20260508170404 68 269 0.9 2.6 0.00 0.00 0.00 49 1013.2
20260508165905 69 272 1.7 6.1 0.00 0.00 0.00 49 1013.3
20260508165404 68 282 1.7 5.2 0.00 0.00 0.00 50 1013.4
20260508164904 68 278 2.6 7.8 0.00 0.00 0.00 50 1013.5
20260508164404 68 182 0.9 4.3 0.00 0.00 0.00 49 1013.6
20260508163904 68 302 1.7 7.8 0.00 0.00 0.00 53 1013.8
20260508163404 68 141 1.7 4.3 0.00 0.00 0.00 50 1013.8
20260508162404 67 257 0.9 2.6 0.00 0.00 0.00 53 1013.9
20260508160905 67 80 0.9 4.3 0.00 0.00 0.00 53 1014.0
20260508160404 66 262 0.9 2.6 0.00 0.00 0.00 54 1014.1
20260508155404 66 275 1.7 7.8 0.00 0.00 0.00 53 1014.3
20260508154904 66 241 1.7 6.1 0.00 0.00 0.00 53 1014.4
20260508154404 65 275 0.9 2.6 0.00 0.00 0.00 56 1014.4
20260508153404 64 150 0.9 2.6 0.00 0.00 0.00 58 1014.6
20260508152904 64 93 1.7 7.0 0.00 0.00 0.00 56 1014.7
20260508152403 63 286 1.7 7.0 0.00 0.00 0.00 55 1014.7
20260508151904 63 256 2.6 7.0 0.00 0.00 0.00 56 1014.8
20260508150904 63 188 1.7 5.2 0.00 0.00 0.00 56 1014.9
20260508150403 63 294 1.7 5.2 0.00 0.00 0.00 55 1014.9
20260508145904 62 267 1.7 4.3 0.00 0.00 0.00 56 1015.0
20260508144904 62 176 0.9 4.3 0.00 0.00 0.00 59 1015.0
20260508144403 61 293 1.7 7.0 0.00 0.00 0.00 56 1014.9
20260508143904 61 328 1.7 2.6 0.00 0.00 0.00 56 1015.0
20260508143404 61 249 0.9 5.2 0.00 0.00 0.00 56 1015.1
20260508142904 61 287 0.9 2.6 0.00 0.00 0.00 56 1015.1
20260508142404 60 255 1.7 7.8 0.00 0.00 0.00 55 1015.3
20260508141904 60 302 0.9 7.0 0.00 0.00 0.00 57 1015.2
20260508141404 60 308 1.7 4.3 0.00 0.00 0.00 55 1015.4
20260508140403 60 282 1.7 5.2 0.00 0.00 0.00 56 1015.5
20260508135903 60 308 0.9 2.6 0.00 0.00 0.00 56 1015.4
20260508135403 59 237 0.9 6.1 0.00 0.00 0.00 57 1015.4
20260508134908 59 279 0.0 1.7 0.00 0.00 0.00 57 1015.5
20260508134407 59 109 0.0 0.9 0.00 0.00 0.00 59 1015.5
20260508133908 58 117 0.9 2.6 0.00 0.00 0.00 59 1015.4
20260508133407 57 227 0.9 5.2 0.00 0.00 0.00 61 1015.5
20260508132908 57 153 0.0 1.7 0.00 0.00 0.00 62 1015.5
20260508131408 55 136 0.0 2.6 0.00 0.00 0.00 69 1015.5
20260508130907 55 285 0.0 0.9 0.00 0.00 0.00 66 1015.5
20260508130408 55 153 0.0 0.9 0.00 0.00 0.00 66 1015.5
20260508125907 55 102 0.0 0.9 0.00 0.00 0.00 67 1015.4
20260508125407 55 321 0.0 1.7 0.00 0.00 0.00 65 1015.4
20260508124907 55 282 0.0 2.6 0.00 0.00 0.00 67 1015.4
20260508124407 54 287 0.0 1.7 0.00 0.00 0.00 66 1015.4
20260508123907 54 52 0.0 0.9 0.00 0.00 0.00 66 1015.3
20260508123408 53 106 0.0 2.6 0.00 0.00 0.00 69 1015.3
20260508122907 52 327 0.0 0.9 0.00 0.00 0.00 68 1015.3
20260508122407 52 150 0.0 0.0 0.00 0.00 0.00 71 1015.3
20260508121907 51 251 0.0 1.7 0.00 0.00 0.00 71 1015.3
20260508121408 50 337 0.0 0.9 0.00 0.00 0.00 73 1015.3
20260508120907 49 281 0.0 0.9 0.00 0.00 0.00 76 1015.4
20260508120408 49 131 0.0 0.0 0.00 0.00 0.00 78 1015.4
20260508115907 48 131 0.0 0.0 0.00 0.00 0.00 79 1015.3
20260508115407 48 131 0.0 0.0 0.00 0.00 0.00 80 1015.3
20260508114907 47 131 0.0 0.0 0.00 0.00 0.00 80 1015.3
20260508114407 47 131 0.0 0.0 0.00 0.00 0.00 81 1015.2
20260508113907 47 131 0.0 0.0 0.00 0.00 0.00 80 1015.2
20260508112408 46 131 0.0 0.0 0.00 0.00 0.00 79 1015.0
20260508111907 46 131 0.0 0.0 0.00 0.00 0.00 79 1015.0
20260508110407 46 80 0.0 0.9 0.00 0.00 0.00 80 1014.8
20260508105907 46 80 0.0 0.0 0.00 0.00 0.00 80 1014.8
20260508104407 46 37 0.0 0.9 0.00 0.00 0.00 80 1014.8
20260508103907 45 37 0.0 0.0 0.00 0.00 0.00 80 1014.8
20260508103407 45 37 0.0 0.0 0.00 0.00 0.00 79 1014.8
20260508102907 45 37 0.0 0.0 0.00 0.00 0.00 79 1014.9
20260508101907 45 37 0.0 0.0 0.00 0.00 0.00 78 1014.9
20260508101407 45 37 0.0 0.0 0.00 0.00 0.00 78 1014.8
20260508100907 45 37 0.0 0.0 0.00 0.00 0.00 79 1014.8
20260508100407 45 37 0.0 0.0 0.00 0.00 0.00 79 1014.8
20260508095907 45 37 0.0 0.0 0.00 0.00 0.00 79 1014.8
20260508095407 45 37 0.0 0.0 0.00 0.00 0.00 79 1014.8
20260508094907 45 37 0.0 0.0 0.00 0.00 0.00 79 1014.8
20260508093906 44 37 0.0 0.0 0.00 0.00 0.00 80 1014.8
20260508093406 44 37 0.0 0.0 0.00 0.00 0.00 80 1014.9
20260508092906 44 37 0.0 0.0 0.00 0.00 0.00 79 1014.9
20260508092407 44 37 0.0 0.0 0.00 0.00 0.00 80 1015.0
20260508091907 44 37 0.0 0.0 0.00 0.00 0.00 81 1014.9
20260508091407 44 37 0.0 0.0 0.00 0.00 0.00 81 1014.9
20260508090907 44 37 0.0 0.0 0.00 0.00 0.00 81 1015.0
20260508090407 44 37 0.0 0.0 0.00 0.00 0.00 80 1015.0
20260508085907 44 37 0.0 0.0 0.00 0.00 0.00 80 1015.0
20260508085407 44 37 0.0 0.0 0.00 0.00 0.00 80 1015.0
20260508084406 43 37 0.0 0.0 0.00 0.00 0.00 81 1014.8
20260508083906 42 37 0.0 0.0 0.00 0.00 0.00 81 1014.8
20260508083407 42 37 0.0 0.0 0.00 0.00 0.00 81 1014.8
20260508082906 42 37 0.0 0.0 0.00 0.00 0.00 81 1014.7
20260508082406 42 37 0.0 0.0 0.00 0.00 0.00 80 1014.8
20260508081907 42 37 0.0 0.0 0.00 0.00 0.00 81 1014.8
20260508081407 42 37 0.0 0.0 0.00 0.00 0.00 81 1014.8
20260508080907 42 37 0.0 0.0 0.00 0.00 0.00 81 1014.8
20260508080406 42 37 0.0 0.0 0.00 0.00 0.00 80 1014.7
20260508075907 42 37 0.0 0.0 0.00 0.00 0.00 80 1014.7
20260508075406 42 37 0.0 0.0 0.00 0.00 0.00 81 1014.7
20260508074907 42 37 0.0 0.0 0.00 0.00 0.00 80 1014.7
20260508073907 43 37 0.0 0.0 0.00 0.00 0.00 79 1014.7
20260508073407 43 37 0.0 0.0 0.00 0.00 0.00 79 1014.7
20260508072906 43 37 0.0 0.0 0.00 0.00 0.00 79 1014.6
20260508072407 43 37 0.0 0.0 0.00 0.00 0.00 79 1014.7
20260508071906 43 37 0.0 0.0 0.00 0.00 0.00 79 1014.8
20260508071407 43 37 0.0 0.0 0.00 0.00 0.00 79 1014.7
20260508070906 43 37 0.0 0.0 0.00 0.00 0.00 79 1014.8
20260508070407 43 37 0.0 0.0 0.00 0.00 0.00 79 1014.9
20260508065907 44 37 0.0 0.0 0.00 0.00 0.00 80 1014.9
20260508065406 44 37 0.0 0.0 0.00 0.00 0.00 79 1014.9
20260508064907 44 37 0.0 0.0 0.00 0.00 0.00 79 1014.9
20260508063907 44 37 0.0 0.0 0.00 0.00 0.00 78 1015.2
20260508063406 44 37 0.0 0.0 0.00 0.00 0.00 77 1015.3
20260508062906 44 37 0.0 0.0 0.00 0.00 0.00 77 1015.4
20260508062406 44 37 0.0 1.7 0.00 0.00 0.00 77 1015.4
20260508061906 44 108 0.0 0.9 0.00 0.00 0.00 78 1015.4
20260508061406 44 312 0.0 0.0 0.00 0.00 0.00 79 1015.4
20260508060906 44 312 0.0 0.0 0.00 0.00 0.00 79 1015.4
20260508060406 44 312 0.0 0.0 0.00 0.00 0.00 79 1015.4
20260508055907 44 312 0.0 0.0 0.00 0.00 0.00 79 1015.3
20260508055406 44 312 0.0 0.0 0.00 0.00 0.00 78 1015.4
20260508054906 44 312 0.0 0.0 0.00 0.00 0.00 78 1015.3
20260508054406 44 312 0.0 0.0 0.00 0.00 0.00 78 1015.5
20260508053906 45 312 0.0 0.0 0.00 0.00 0.00 78 1015.5
20260508053406 45 312 0.0 0.0 0.00 0.00 0.00 79 1015.5
20260508052406 44 312 0.0 0.0 0.00 0.00 0.00 79 1015.4
20260508051906 44 312 0.0 0.0 0.00 0.00 0.00 79 1015.4
20260508051406 44 312 0.0 0.0 0.00 0.00 0.00 80 1015.4
20260508050406 44 312 0.0 0.0 0.00 0.00 0.00 78 1015.3
20260508045406 44 312 0.0 0.0 0.00 0.00 0.00 77 1015.3
20260508044906 44 312 0.0 0.0 0.00 0.00 0.00 77 1015.4
20260508044406 44 312 0.0 0.0 0.00 0.00 0.00 77 1015.3
20260508043906 45 312 0.0 0.0 0.00 0.00 0.00 76 1015.4
20260508042406 45 312 0.0 0.0 0.00 0.00 0.00 75 1015.2
20260508041906 45 312 0.0 0.0 0.00 0.00 0.00 75 1015.3
20260508041406 45 312 0.0 0.0 0.00 0.00 0.00 75 1015.3
20260508040906 45 312 0.0 0.0 0.00 0.00 0.00 75 1015.3
20260508040405 46 312 0.0 0.0 0.00 0.00 0.00 75 1015.2
20260508035906 46 312 0.0 0.0 0.00 0.00 0.00 74 1015.2
20260508035406 46 312 0.0 0.0 0.00 0.00 0.00 74 1015.1
20260508034906 46 312 0.0 0.0 0.00 0.00 0.00 74 1015.1
20260508034406 46 312 0.0 0.0 0.00 0.00 0.00 74 1015.2
20260508033906 46 312 0.0 0.0 0.00 0.00 0.00 74 1015.2
20260508033407 46 312 0.0 0.0 0.00 0.00 0.00 73 1015.1
20260508032406 47 312 0.0 0.0 0.00 0.00 0.00 72 1015.2
20260508031906 47 312 0.0 0.0 0.00 0.00 0.00 72 1015.2
20260508031406 47 312 0.0 0.0 0.00 0.00 0.00 73 1015.2
20260508030906 46 312 0.0 0.0 0.00 0.00 0.00 73 1015.1
20260508025905 47 312 0.0 0.0 0.00 0.00 0.00 72 1015.0
20260508024905 47 312 0.0 0.0 0.00 0.00 0.00 69 1015.1